Regional Weather Roundup
Issued by NWS Jackson, KY

Home | Current Version | Previous Version | Graphics & Text | Print | Product List | Glossary On
Versions: 1 2 3 4 5 6 7 8 9 10 11 12 13 14 15 16 17 18 19 20 21 22 23 24 25 26 27 28 29 30 31 32 33 34 35 36 37 38 39 40 41 42 43 44 45 46 47 48 49 50
027
ASUS43 KJKL 041510
RWRJKL

EAST KENTUCKY HOURLY WEATHER ROUNDUP
NATIONAL WEATHER SERVICE JACKSON KY
1000 AM EST SUN DEC 04 2016

NOTE: "FAIR" INDICATES FEW OR NO CLOUDS BELOW 12,000 FEET WITH
NO SIGNIFICANT WEATHER AND/OR OBSTRUCTIONS TO VISIBILITY.

* THESE REPORTS ARE NOT UNDER NWS QUALITY CONTROL AND MAY NOT
  REPORT WEATHER SUCH AS PRECIPITATION AND FOG.

KYZ079-080-083-085-087-088-110-112-115-119-120-041600
...EASTERN KENTUCKY...

CITY           SKY/WX    TMP DP  RH WIND       PRES   REMARKS
JACKSON        LGT RAIN  37  31  78 VRB3      30.15F
LONDON         CLOUDY    39  36  89 E5        30.14F
SOMERSET*      CLOUDY    39  39 100 E3        30.13S
MONTICELLO*    CLOUDY    43  39  86 VRB5      30.11F
WILLIAMSBURG*  CLOUDY    39  39 100 E7        30.11F WCI  34
MIDDLESBORO*   RAIN      41  40  97 NW5       30.14F
HARLAN APT*    CLOUDY    43  37  81 E5        30.15F
PIKE CO APT*   CLOUDY    37  31  78 NE3       30.16S
BIG SANDY APT* CLOUDY    38  31  77 E5        30.18F WCI  34
MOREHEAD APT*  CLOUDY    39  27  60 VRB6      30.17F WCI  35
ASHLAND*       CLOUDY    39  30  70 SE9       30.19F WCI  33
$$

KYZ035-036-041-042-044-050-067-078-099-041600
...CENTRAL KENTUCKY...

CITY           SKY/WX    TMP DP  RH WIND       PRES   REMARKS
MT STERLING*   CLOUDY    37  32  81 SE9       30.16S WCI  31
FLEMING/MASON* CLOUDY    38  28  67 E10       30.17F WCI  31
DANVILLE*      CLOUDY    37  36  93 SE3       30.13F
LEXINGTON      PTSUNNY   41  33  73 E9        30.13F
FRANKFORT      CLOUDY    42  32  67 E9        30.12F
LOUISVILLE     CLOUDY    43  32  65 E8        30.09F
LEBANON*       CLOUDY    39  37  93 E6        30.10F WCI  35
GLASGOW*       CLOUDY    44  44 100 E9        30.06F
BOWLING GREEN  CLOUDY    43  41  93 E9        30.05F
$$

KYZ091>093-OHZ055-061-077-WVZ005-015-034-035-042-041600
...SOUTHERN OHIO/WEST VIRGINIA...

CITY           SKY/WX    TMP DP  RH WIND       PRES   REMARKS
COVINGTON      CLOUDY    39  29  67 E9        30.13F WCI  33
COLUMBUS       CLOUDY    37  28  70 SE10      30.21R WCI  30
DAYTON         CLOUDY    37  28  70 SE10      30.18F WCI  30
WILMINGTON     CLOUDY    35  29  78 SE9       30.16F WCI  28
HUNTINGTON     CLOUDY    38  29  70 VRB6      30.20F WCI  33
CHARLESTON     CLOUDY    36  30  79 E3        30.20S
PINEVILLE*     MIX PCPN  39  27  63 MISG      30.23R
BECKLEY        CLOUDY    34  25  69 E7        30.18R WCI  28
BLUEFIELD      LGT RAIN  32  28  85 NE6       30.16F WCI  26
LOGAN CO APT*  CLOUDY    37  30  75 CALM      30.18R
$$

VAZ002-007-008-TNZ017-027-036-066-071-041600
...SOUTHWEST VIRGINIA/EAST TENNESSEE...

CITY           SKY/WX    TMP DP  RH WIND       PRES   REMARKS
WISE*          LGT RAIN  41  41 100 S6        30.16R
ABINGDON*      CLOUDY    39  37  91 E10       30.17S WCI  32
BRISTOL        LGT RAIN  39  37  92 CALM      30.18R FOG
MORRISTOWN*    CLOUDY    39  39 100 E7        30.13S FOG     WCI  34
SEVIERVILLE*   PTSUNNY   39  37  93 CALM      30.14R
OAK RIDGE      LGT RAIN  41  39  93 NE5       30.15R FOG
CROSSVILLE     CLOUDY    39  37  92 E5        30.09F
NASHVILLE      DRIZZLE   44  42  93 SE9       30.06S
$$

...KEY TO REMARKS...
VSB - VISIBILITY IN MILES
WCI - WIND CHILL INDEX
HX  - HEAT INDEX

$$




USA.gov is the U.S. government's official web portal to all federal, state and local government web resources and services.